period_start,C,m1,H,J0,J1,J2,J3,J4,J5,JA,JB,JC,JD,JJ,JK,JN,#
2018-07-20 00:01:57,0.02,1.06,0.00,26.60,30.84,33.82,13.66,46.88,1007.83,2011.77,2951.35,2791.06,3184.96,599.83,583.61,27.76,0000 0000 0000 0000 000000
2018-07-20 00:06:58,0.00,1.06,0.00,26.60,30.82,33.80,13.68,46.85,1007.94,2011.92,2951.56,2791.24,3184.97,600.31,584.06,27.81,0000 0000 0000 0000 000000
2018-07-20 00:12:00,0.01,1.06,0.00,26.57,30.80,33.79,13.70,46.73,1008.11,2011.94,2951.37,2791.22,3184.97,599.77,583.81,27.86,0000 0000 0000 0000 000000
2018-07-20 00:17:01,-0.01,1.06,0.00,26.54,30.77,33.74,13.65,46.96,1008.31,2011.98,2951.65,2791.55,3184.99,599.87,584.15,27.91,0000 0000 0000 0000 000000
2018-07-20 00:22:02,-0.00,1.06,0.00,26.52,30.75,33.74,13.74,46.92,1008.31,2011.99,2951.74,2791.83,3184.99,600.05,584.21,27.96,0000 0000 0000 0000 000000
2018-07-20 00:27:03,-0.00,1.06,0.00,26.49,30.72,33.72,13.65,46.54,1008.31,2011.99,2951.74,2791.92,3184.99,599.35,583.55,28.01,0000 0000 0000 0000 000000
2018-07-20 00:32:05,-0.00,1.06,0.00,26.47,30.70,33.67,13.81,47.00,1008.32,2012.00,2951.63,2791.94,3184.99,600.23,584.44,28.06,0000 0000 0000 0000 000000
2018-07-20 00:37:06,0.00,1.06,0.00,26.46,30.68,33.66,13.67,46.83,1008.33,2012.00,2951.58,2791.98,3184.99,600.29,584.61,28.11,0000 0000 0000 0000 000000
2018-07-20 00:42:08,0.03,1.06,0.00,26.45,30.66,33.65,13.81,47.00,1008.35,2012.09,2951.12,2791.74,3184.99,600.89,585.14,28.16,0000 0000 0000 0000 000000
2018-07-20 00:47:09,0.03,1.06,0.00,26.45,30.63,33.63,13.65,46.88,1008.39,2012.17,2950.99,2791.25,3184.96,599.37,583.96,28.21,0000 0000 0000 0000 000000
2018-07-20 00:52:11,0.03,1.06,0.00,26.42,30.61,33.62,13.77,46.95,1008.60,2012.54,2950.98,2791.39,3184.96,600.45,584.98,28.26,0000 0000 0000 0000 000000
2018-07-20 00:57:12,0.02,1.06,0.00,26.40,30.59,33.60,13.73,46.81,1008.80,2012.90,2950.98,2791.56,3184.97,600.25,584.87,28.31,0000 0000 0000 0000 000000
2018-07-20 01:02:13,-0.01,1.06,0.00,26.38,30.57,33.60,13.73,46.61,1008.81,2012.97,2950.99,2791.91,3184.99,600.27,585.09,28.36,0000 0000 0000 0000 000000
2018-07-20 01:07:15,0.00,1.06,0.00,26.36,30.55,33.54,13.69,47.23,1008.81,2012.99,2950.99,2791.93,3184.99,599.46,584.28,28.41,0000 0000 0000 0000 000000
2018-07-20 01:12:16,0.00,1.06,0.00,26.34,30.53,33.52,13.70,47.15,1008.82,2012.99,2950.99,2791.98,3184.99,599.89,584.74,28.46,0000 0000 0000 0000 000000
2018-07-20 01:17:17,0.00,1.06,0.00,26.34,30.51,33.52,13.64,46.77,1008.80,2013.00,2950.99,2791.98,3185.00,599.58,584.55,28.51,0000 0000 0000 0000 000000
2018-07-20 01:22:19,0.00,1.06,0.00,26.32,30.49,33.49,13.78,46.68,1008.80,2013.02,2951.01,2791.99,3185.05,600.93,585.91,28.56,0000 0000 0000 0000 000000
2018-07-20 01:27:20,0.00,1.06,0.00,26.31,30.47,33.48,13.65,46.59,1008.81,2013.06,2951.03,2791.99,3185.15,599.85,585.15,28.61,0000 0000 0000 0000 000000
2018-07-20 01:32:21,0.02,1.07,0.00,26.28,30.45,33.47,13.67,46.52,1008.84,2013.31,2951.04,2792.00,3185.36,600.06,585.05,28.66,0000 0000 0000 0000 000000
2018-07-20 01:37:23,0.01,1.07,0.00,26.27,30.42,33.44,13.69,46.80,1009.00,2013.50,2951.06,2792.01,3185.48,599.62,584.68,28.71,0000 0000 0000 0000 000000
2018-07-20 01:42:24,0.03,1.07,0.00,26.26,30.41,33.44,13.70,46.32,1009.04,2013.74,2951.22,2792.04,3185.72,600.11,585.11,28.77,0000 0000 0000 0000 000000
2018-07-20 01:47:25,0.00,1.07,0.00,26.26,30.39,33.38,13.56,46.40,1008.96,2013.92,2951.40,2792.07,3185.89,599.42,584.59,28.82,0000 0000 0000 0000 000000
2018-07-20 01:52:27,-0.01,1.07,0.00,26.24,30.37,33.38,13.69,46.69,1009.13,2013.96,2951.67,2792.26,3185.94,600.59,585.82,28.87,0000 0000 0000 0000 000000
2018-07-20 01:57:28,-0.01,1.07,0.00,26.22,30.35,33.35,13.75,46.83,1009.17,2013.98,2951.84,2792.61,3185.97,600.43,585.62,28.92,0000 0000 0000 0000 000000
2018-07-20 02:02:29,0.03,1.07,0.00,26.20,30.33,33.34,13.68,46.85,1009.21,2013.98,2951.12,2792.12,3185.84,599.98,585.35,28.97,0000 0000 0000 0000 000000
2018-07-20 02:07:31,-0.00,1.07,0.00,26.18,30.31,33.31,13.62,46.79,1009.27,2013.99,2951.08,2792.13,3185.88,599.12,584.59,29.02,0000 0000 0000 0000 000000
2018-07-20 02:12:33,-0.03,1.07,0.00,26.17,30.30,33.29,13.67,46.50,1009.30,2013.99,2951.38,2792.48,3185.97,600.01,585.57,29.07,0000 0000 0000 0000 000000
2018-07-20 02:17:34,0.00,1.07,0.00,26.16,30.28,33.26,13.71,46.54,1009.34,2013.99,2951.58,2792.66,3185.98,599.99,585.32,29.12,0000 0000 0000 0000 000000
2018-07-20 02:22:35,-0.01,1.07,0.00,26.15,30.27,33.26,13.69,46.33,1009.33,2013.99,2951.86,2792.92,3185.99,599.98,585.42,29.17,0000 0000 0000 0000 000000
2018-07-20 02:27:36,0.00,1.07,0.00,26.15,30.25,33.24,13.69,46.76,1009.31,2014.01,2951.89,2792.98,3185.99,599.63,585.21,29.22,0000 0000 0000 0000 000000
2018-07-20 02:32:38,0.00,1.07,0.00,26.14,30.23,33.24,13.76,46.42,1009.37,2014.03,2951.87,2792.98,3185.99,599.83,585.42,29.27,0000 0000 0000 0000 000000
2018-07-20 02:37:39,0.01,1.07,0.00,26.12,30.22,33.21,13.71,46.62,1009.74,2014.16,2951.91,2792.99,3186.00,600.22,586.05,29.32,0000 0000 0000 0000 000000
2018-07-20 02:42:40,0.04,1.07,0.00,26.10,30.20,33.23,13.67,46.65,1009.78,2014.50,2951.83,2792.99,3186.01,599.94,585.84,29.37,0000 0000 0000 0000 000000
2018-07-20 02:47:41,0.01,1.07,0.00,26.09,30.19,33.18,13.71,46.83,1009.78,2014.79,2951.97,2792.99,3186.06,599.82,585.69,29.42,0000 0000 0000 0000 000000
2018-07-20 02:52:42,-0.00,1.07,0.00,26.07,30.17,33.15,13.73,46.78,1009.79,2014.83,2951.96,2792.99,3186.10,599.79,585.78,29.47,0000 0000 0000 0000 000000
2018-07-20 02:57:44,0.00,1.07,0.00,26.07,30.15,33.14,13.75,46.87,1009.81,2014.93,2951.98,2793.00,3186.34,599.86,585.79,29.52,0000 0000 0000 0000 000000
2018-07-20 03:02:45,0.00,1.07,0.00,26.06,30.14,33.13,13.70,46.61,1010.11,2014.96,2951.98,2793.02,3186.58,599.99,586.33,29.57,0000 0000 0000 0000 000000
2018-07-20 03:07:46,-0.01,1.07,0.00,26.05,30.12,33.11,13.68,47.27,1010.27,2014.99,2951.99,2793.05,3186.83,600.17,586.48,29.62,0000 0000 0000 0000 000000
2018-07-20 03:12:47,-0.01,1.07,0.00,26.03,30.10,33.10,13.66,47.31,1010.28,2014.99,2951.99,2793.25,3186.97,599.51,585.90,29.67,0000 0000 0000 0000 000000
2018-07-20 03:17:48,-0.00,1.07,0.00,26.01,30.09,33.10,13.75,47.24,1010.29,2014.99,2952.02,2793.57,3186.99,599.69,586.06,29.72,0000 0000 0000 0000 000000
2018-07-20 03:22:50,-0.01,1.07,0.00,26.01,30.07,33.07,13.71,46.96,1010.33,2014.99,2952.04,2793.81,3186.99,599.92,586.30,29.77,0000 0000 0000 0000 000000
2018-07-20 03:27:51,-0.00,1.07,0.00,26.00,30.06,33.05,13.85,46.98,1010.27,2015.00,2952.16,2793.94,3186.99,600.44,586.81,29.82,0000 0000 0000 0000 000000
2018-07-20 03:32:53,0.00,1.07,0.00,25.99,30.05,33.03,13.76,46.82,1010.27,2015.03,2952.36,2793.99,3187.00,600.44,586.72,29.87,0000 0000 0000 0000 000000
2018-07-20 03:37:54,0.01,1.07,0.00,25.96,30.02,33.02,13.79,46.77,1010.27,2015.10,2952.54,2793.98,3187.03,599.96,586.32,29.92,0000 0000 0000 0000 000000
2018-07-20 03:42:55,0.01,1.07,0.00,25.94,30.01,33.01,13.70,46.42,1010.27,2015.24,2952.67,2793.99,3187.08,599.89,586.32,29.97,0000 0000 0000 0000 000000
2018-07-20 03:47:57,0.03,1.07,0.00,25.93,30.00,32.99,13.78,46.61,1010.29,2015.52,2952.86,2793.99,3187.23,599.67,586.14,30.02,0000 0000 0000 0000 000000
2018-07-20 03:52:58,0.01,1.07,0.00,25.92,29.98,32.97,13.74,46.48,1010.50,2015.79,2952.91,2793.99,3187.74,599.95,586.57,30.07,0000 0000 0000 0000 000000
2018-07-20 03:57:59,0.01,1.07,0.00,25.91,29.97,32.95,13.64,46.66,1010.53,2015.95,2952.97,2794.03,3187.91,600.01,586.57,30.12,0000 0000 0000 0000 000000
2018-07-20 04:03:01,-0.00,1.07,0.00,25.91,29.95,32.95,13.72,46.76,1010.60,2015.94,2952.98,2794.04,3187.95,599.51,586.37,30.17,0000 0000 0000 0000 000000
2018-07-20 04:08:02,0.00,1.07,0.00,25.90,29.95,32.94,13.73,46.54,1010.66,2015.97,2952.99,2794.08,3187.99,600.56,587.40,30.22,0000 0000 0000 0000 000000
2018-07-20 04:13:03,-0.01,1.07,0.00,25.89,29.92,32.93,13.73,46.45,1010.36,2015.96,2952.99,2794.25,3187.98,599.74,586.44,30.27,0000 0000 0000 0000 000000
2018-07-20 04:18:04,-0.01,1.07,0.00,25.88,29.92,32.92,13.72,46.39,1010.29,2015.99,2952.99,2794.58,3187.99,599.70,586.55,30.32,0000 0000 0000 0000 000000
2018-07-20 04:23:05,-0.01,1.07,0.00,25.87,29.90,32.88,13.76,46.01,1010.29,2015.99,2953.06,2794.92,3188.00,600.53,587.18,30.37,0000 0000 0000 0000 000000
2018-07-20 04:28:07,0.00,1.07,0.00,25.87,29.89,32.87,13.75,47.14,1010.28,2015.99,2953.10,2794.97,3188.00,600.45,587.09,30.42,0000 0000 0000 0000 000000
2018-07-20 04:33:08,0.00,1.07,0.00,25.85,29.87,32.89,13.72,46.88,1010.28,2015.99,2953.10,2794.98,3188.01,599.81,586.46,30.47,0000 0000 0000 0000 000000
2018-07-20 04:38:09,-0.01,1.07,0.00,25.85,29.86,32.85,13.70,46.83,1010.28,2015.99,2953.44,2794.98,3188.02,599.89,586.57,30.52,0000 0000 0000 0000 000000
2018-07-20 04:43:10,-0.01,1.07,0.00,25.84,29.85,32.83,13.64,46.63,1010.35,2015.99,2953.91,2794.99,3188.24,599.78,586.33,30.57,0000 0000 0000 0000 000000
2018-07-20 04:48:11,-0.00,1.07,0.00,25.83,29.84,32.82,13.70,46.84,1010.37,2015.99,2953.94,2794.99,3188.35,599.83,586.60,30.62,0000 0000 0000 0000 000000
2018-07-20 04:53:12,-0.00,1.07,0.00,25.82,29.82,32.81,13.76,47.02,1010.29,2015.99,2953.98,2795.01,3188.53,600.29,587.01,30.67,0000 0000 0000 0000 000000
2018-07-20 04:58:14,-0.00,1.07,0.00,25.82,29.82,32.79,13.83,47.08,1010.32,2015.99,2953.97,2795.02,3188.77,600.15,586.91,30.72,0000 0000 0000 0000 000000
2018-07-20 05:03:15,0.00,1.07,0.00,25.81,29.80,32.81,13.75,46.73,1010.53,2015.99,2953.97,2795.03,3188.88,600.37,587.24,30.77,0000 0000 0000 0000 000000
2018-07-20 05:08:16,0.00,1.07,0.00,25.80,29.80,32.81,13.78,46.73,1010.74,2015.99,2953.98,2795.03,3188.92,599.79,586.85,30.82,0000 0000 0000 0000 000000
2018-07-20 05:13:17,-0.00,1.07,0.00,25.78,29.79,32.79,13.71,46.51,1010.75,2016.00,2953.98,2795.09,3188.96,599.93,587.03,30.87,0000 0000 0000 0000 000000
2018-07-20 05:18:18,0.00,1.07,0.00,25.77,29.77,32.76,13.81,46.80,1010.76,2016.01,2953.99,2795.12,3188.98,599.63,586.80,30.92,0000 0000 0000 0000 000000
2018-07-20 05:23:20,-0.01,1.07,0.00,25.77,29.77,32.75,13.68,46.41,1010.76,2016.01,2953.99,2795.24,3188.99,599.74,586.82,30.97,0000 0000 0000 0000 000000
2018-07-20 05:28:21,-0.01,1.07,0.00,25.75,29.77,32.78,13.75,46.77,1010.75,2016.01,2953.99,2795.54,3188.99,599.45,586.59,31.02,0000 0000 0000 0000 000000
2018-07-20 05:33:22,0.00,1.07,0.00,25.75,29.75,32.75,13.84,46.77,1010.75,2016.07,2954.02,2795.89,3188.99,600.35,587.50,31.07,0000 0000 0000 0000 000000
2018-07-20 05:38:23,-0.00,1.07,0.00,25.75,29.75,32.73,13.70,46.42,1010.76,2016.14,2954.03,2795.95,3188.99,600.18,587.31,31.12,0000 0000 0000 0000 000000
2018-07-20 05:43:25,0.02,1.07,0.00,25.74,29.74,32.70,13.78,47.19,1010.84,2016.18,2954.00,2795.93,3188.99,599.70,587.04,31.17,0000 0000 0000 0000 000000
2018-07-20 05:48:26,0.00,1.07,0.00,25.72,29.72,32.70,13.77,46.88,1011.02,2016.23,2953.99,2795.94,3188.99,599.73,587.12,31.22,0000 0000 0000 0000 000000
2018-07-20 05:53:27,0.02,1.07,0.00,25.72,29.72,32.71,13.77,46.94,1010.88,2016.36,2954.00,2795.96,3189.01,599.84,587.12,31.27,0000 0000 0000 0000 000000
2018-07-20 05:58:28,0.02,1.07,0.00,25.71,29.70,32.71,13.73,46.53,1010.90,2016.60,2954.01,2795.98,3189.01,600.24,587.48,31.33,0000 0000 0000 0000 000000
2018-07-20 06:03:30,0.02,1.07,0.00,25.70,29.70,32.68,13.76,46.69,1011.21,2016.78,2954.01,2795.99,3189.01,599.85,587.19,31.38,0000 0000 0000 0000 000000
2018-07-20 06:08:31,0.00,1.07,0.00,25.68,29.70,32.68,13.74,46.63,1011.08,2016.96,2954.03,2795.99,3189.06,600.05,587.47,31.43,0000 0000 0000 0000 000000
2018-07-20 06:13:32,-0.00,1.07,0.00,25.67,29.68,32.67,13.70,46.72,1010.99,2016.96,2954.04,2795.99,3189.18,599.92,587.35,31.48,0000 0000 0000 0000 000000
2018-07-20 06:18:33,0.00,1.07,0.00,25.67,29.67,32.65,13.79,47.23,1011.24,2016.98,2954.05,2795.99,3189.31,600.01,587.58,31.53,0000 0000 0000 0000 000000
2018-07-20 06:23:35,-0.01,1.07,0.00,25.66,29.66,32.63,13.79,46.96,1011.28,2016.99,2954.14,2795.99,3189.76,600.53,588.01,31.58,0000 0000 0000 0000 000000
2018-07-20 06:28:36,0.00,1.07,0.00,25.64,29.65,32.62,13.74,46.76,1011.29,2016.99,2954.20,2796.00,3189.74,599.90,587.63,31.63,0000 0000 0000 0000 000000
2018-07-20 06:33:37,-0.00,1.07,0.00,25.64,29.65,32.62,13.65,46.64,1011.52,2016.98,2954.44,2796.01,3189.66,599.52,587.40,31.68,0000 0000 0000 0000 000000
2018-07-20 06:38:38,-0.00,1.07,0.00,25.62,29.63,32.61,13.84,46.78,1011.72,2016.99,2954.68,2796.01,3189.86,600.16,588.03,31.73,0000 0000 0000 0000 000000
2018-07-20 06:43:40,0.00,1.07,0.00,25.62,29.62,32.60,13.82,46.83,1011.73,2016.99,2954.76,2796.02,3189.94,600.62,588.60,31.78,0000 0000 0000 0000 000000
2018-07-20 06:48:41,-0.00,1.07,0.00,25.62,29.62,32.61,13.81,46.98,1011.68,2016.99,2954.82,2796.05,3189.96,600.17,588.11,31.83,0000 0000 0000 0000 000000
2018-07-20 06:53:42,-0.01,1.07,0.00,25.61,29.60,32.59,13.72,46.58,1011.38,2016.99,2954.89,2796.17,3189.98,600.28,587.97,31.88,0000 0000 0000 0000 000000
2018-07-20 06:58:44,-0.01,1.07,0.00,25.60,29.60,32.59,13.75,46.92,1011.25,2016.99,2954.99,2796.51,3189.99,599.82,587.49,31.93,0000 0000 0000 0000 000000
2018-07-20 07:03:45,-0.00,1.07,0.00,25.58,29.59,32.58,13.71,46.64,1011.25,2016.99,2954.99,2796.59,3189.99,599.42,587.27,31.98,0000 0000 0000 0000 000000
2018-07-20 07:08:46,0.00,1.07,0.00,25.58,29.57,32.56,13.77,46.52,1011.30,2016.99,2954.99,2796.61,3189.99,600.30,588.10,32.03,0000 0000 0000 0000 000000
2018-07-20 07:13:47,-0.00,1.07,0.00,25.57,29.57,32.56,13.80,47.08,1011.60,2016.99,2954.99,2796.75,3189.99,600.75,588.72,32.08,0000 0000 0000 0000 000000
2018-07-20 07:18:48,0.00,1.07,0.00,25.56,29.56,32.56,13.76,46.99,1011.63,2016.99,2954.99,2796.91,3189.99,599.93,588.01,32.13,0000 0000 0000 0000 000000
2018-07-20 07:23:49,0.00,1.07,0.00,25.56,29.55,32.54,13.78,46.83,1011.71,2017.01,2954.99,2796.97,3190.01,599.52,587.42,32.18,0000 0000 0000 0000 000000
2018-07-20 07:28:50,0.00,1.07,0.00,25.55,29.55,32.55,13.73,46.65,1011.72,2017.00,2955.00,2796.99,3190.02,600.16,588.32,32.23,0000 0000 0000 0000 000000
2018-07-20 07:33:52,0.00,1.07,0.00,25.55,29.53,32.52,13.82,46.87,1011.66,2017.01,2954.99,2796.95,3190.01,600.14,588.15,32.28,0000 0000 0000 0000 000000
2018-07-20 07:38:53,0.00,1.07,0.00,25.53,29.52,32.50,13.77,46.60,1011.72,2017.03,2954.99,2796.95,3190.00,600.39,588.68,32.33,0000 0000 0000 0000 000000
2018-07-20 07:43:54,0.00,1.07,0.00,25.54,29.52,32.50,13.78,46.72,1011.73,2017.03,2954.98,2796.97,3190.01,599.74,587.68,32.38,0000 0000 0000 0000 000000
2018-07-20 07:48:56,0.01,1.07,0.00,25.52,29.50,32.48,13.76,46.29,1011.73,2017.10,2954.98,2796.97,3190.02,599.89,588.07,32.43,0000 0000 0000 0000 000000
2018-07-20 07:53:57,0.00,1.07,0.00,25.50,29.50,32.48,13.82,46.66,1011.73,2017.12,2954.98,2796.97,3190.02,599.84,588.14,32.48,0000 0000 0000 0000 000000
2018-07-20 07:58:58,0.01,1.07,0.00,25.51,29.49,32.48,13.74,46.10,1011.74,2017.29,2954.99,2796.99,3190.05,599.12,587.28,32.53,0000 0000 0000 0000 000000
2018-07-20 08:03:59,0.03,1.07,0.00,25.49,29.47,32.46,13.81,46.71,1011.76,2017.74,2954.99,2796.99,3190.12,600.43,588.67,32.58,0000 0000 0000 0000 000000
2018-07-20 08:09:00,0.01,1.07,0.00,25.48,29.47,32.46,13.80,46.47,1011.79,2017.90,2954.99,2796.99,3190.29,599.98,588.27,32.63,0000 0000 0000 0000 000000
2018-07-20 08:14:02,-0.01,1.07,0.00,25.47,29.46,32.45,13.88,46.48,1011.74,2017.93,2954.99,2796.99,3190.62,600.43,588.72,32.68,0000 0000 0000 0000 000000
2018-07-20 08:19:03,0.00,1.07,0.00,25.45,29.45,32.44,13.74,46.49,1011.75,2017.88,2954.99,2796.99,3190.27,599.48,587.90,32.73,0000 0000 0000 0000 000000
2018-07-20 08:24:04,-0.00,1.07,0.00,25.45,29.45,32.45,13.77,46.03,1011.77,2017.96,2955.00,2796.99,3190.65,600.28,588.57,32.78,0000 0000 0000 0000 000000
2018-07-20 08:29:05,0.00,1.07,0.00,25.43,29.44,32.43,13.81,45.96,1011.90,2017.98,2955.00,2797.00,3190.68,600.00,588.43,32.83,0000 0000 0000 0000 000000
2018-07-20 08:34:07,0.00,1.07,0.00,25.42,29.42,32.42,13.76,46.55,1011.90,2017.99,2955.00,2797.00,3190.62,600.36,588.79,32.88,0000 0000 0000 0000 000000
2018-07-20 08:39:07,-0.00,1.07,0.00,25.41,29.42,32.40,13.88,46.89,1012.19,2017.99,2954.99,2797.00,3190.81,600.17,588.77,32.93,0000 0000 0000 0000 000000
2018-07-20 08:44:09,0.00,1.07,0.00,25.40,29.41,32.39,13.69,46.22,1012.23,2017.99,2954.99,2797.01,3190.88,599.49,588.18,32.98,0000 0000 0000 0000 000000
2018-07-20 08:49:10,0.00,1.07,0.00,25.41,29.40,32.37,13.86,46.69,1012.24,2017.99,2954.98,2797.00,3190.83,600.06,588.70,33.03,0000 0000 0000 0000 000000
2018-07-20 08:54:11,0.00,1.07,0.00,25.40,29.40,32.36,13.85,46.55,1012.09,2017.99,2954.99,2797.01,3190.89,600.89,589.46,33.09,0000 0000 0000 0000 000000
2018-07-20 08:59:12,0.00,1.07,0.00,25.40,29.38,32.36,13.76,46.43,1011.77,2017.99,2954.99,2797.04,3190.92,600.08,588.69,33.14,0000 0000 0000 0000 000000
2018-07-20 09:04:14,0.00,1.07,0.00,25.39,29.37,32.38,13.74,46.22,1011.75,2017.99,2954.99,2797.06,3190.96,599.35,587.81,33.19,0000 0000 0000 0000 000000
2018-07-20 09:09:15,0.00,1.07,0.00,25.37,29.37,32.36,13.76,46.51,1011.73,2017.99,2954.99,2797.07,3190.99,600.13,588.55,33.24,0000 0000 0000 0000 000000
2018-07-20 09:14:16,0.00,1.07,0.00,25.35,29.35,32.35,13.82,46.42,1011.75,2018.01,2954.99,2797.18,3190.99,600.51,589.01,33.29,0000 0000 0000 0000 000000
2018-07-20 09:19:18,-0.01,1.07,0.00,25.35,29.35,32.35,13.69,45.94,1011.79,2018.01,2954.99,2797.28,3190.99,599.20,587.79,33.34,0000 0000 0000 0000 000000
2018-07-20 09:24:20,-0.00,1.07,0.00,25.34,29.35,32.33,13.84,46.25,1012.03,2018.06,2955.00,2797.62,3190.99,600.54,589.18,33.39,0000 0000 0000 0000 000000
2018-07-20 09:29:21,0.01,1.07,0.00,25.32,29.32,32.32,13.79,46.34,1012.23,2018.12,2954.99,2797.34,3190.99,599.80,588.63,33.44,0000 0000 0000 0000 000000
2018-07-20 09:34:23,0.00,1.07,0.00,25.32,29.32,32.30,13.79,45.87,1012.25,2018.23,2954.99,2797.64,3190.99,599.99,588.83,33.49,0000 0000 0000 0000 000000
2018-07-20 09:39:24,0.03,1.07,0.00,25.32,29.32,32.28,13.78,45.80,1012.24,2018.61,2954.99,2797.80,3190.99,600.19,588.87,33.54,0000 0000 0000 0000 000000
2018-07-20 09:44:25,-0.01,1.07,0.00,25.32,29.30,32.29,13.87,46.27,1012.27,2018.71,2954.98,2797.80,3191.00,600.46,589.29,33.59,0000 0000 0000 0000 000000
2018-07-20 09:49:27,-0.03,1.07,0.00,25.31,29.30,32.28,13.82,46.17,1012.23,2018.41,2954.98,2797.77,3191.00,599.85,588.76,33.64,0000 0000 0000 0000 000000
2018-07-20 09:54:28,0.04,1.07,0.00,25.30,29.30,32.27,13.68,45.75,1012.23,2018.80,2954.99,2797.93,3191.01,599.67,588.54,33.69,0000 0000 0000 0000 000000
2018-07-20 09:59:29,-0.00,1.08,0.00,25.29,29.28,32.28,13.71,45.69,1012.22,2018.87,2954.99,2797.96,3191.00,599.58,588.61,33.74,0000 0000 0000 0000 000000
2018-07-20 10:04:30,-0.00,1.07,0.00,25.27,29.27,32.27,13.86,46.87,1012.22,2018.82,2954.96,2797.87,3191.00,600.78,589.70,33.79,0000 0000 0000 0000 000000
2018-07-20 10:09:32,-0.01,1.07,0.00,25.27,29.27,32.25,13.77,47.05,1012.22,2018.71,2954.94,2797.72,3190.99,599.97,588.91,33.84,0000 0000 0000 0000 000000
2018-07-20 10:14:33,0.01,1.08,0.00,25.27,29.25,32.23,13.74,46.80,1012.22,2018.87,2954.96,2797.84,3190.99,600.08,589.05,33.89,0000 0000 0000 0000 000000
2018-07-20 10:19:34,-0.00,1.08,0.00,25.25,29.25,32.24,13.74,46.97,1012.22,2018.94,2954.97,2797.89,3190.99,599.75,588.76,33.94,0000 0000 0000 0000 000000
2018-07-20 10:24:35,0.00,1.08,0.00,25.23,29.25,32.23,13.83,46.93,1012.23,2018.94,2954.99,2797.94,3191.00,600.44,589.36,33.99,0000 0000 0000 0000 000000
2018-07-20 10:29:36,0.00,1.08,0.00,25.23,29.22,32.20,13.69,46.63,1012.23,2018.97,2954.99,2797.99,3191.00,599.73,588.75,34.04,0000 0000 0000 0000 000000
2018-07-20 10:34:38,0.00,1.08,0.00,25.23,29.22,32.20,13.73,46.46,1012.22,2018.99,2954.99,2797.99,3191.00,599.85,588.80,34.10,0000 0000 0000 0000 000000
2018-07-20 10:39:39,0.00,1.08,0.00,25.22,29.22,32.20,13.82,45.99,1012.22,2018.97,2954.99,2797.98,3191.00,600.06,588.98,34.15,0000 0000 0000 0000 000000
2018-07-20 10:44:40,0.00,1.08,0.00,25.22,29.22,32.21,13.92,46.62,1012.22,2018.99,2954.99,2797.98,3191.01,600.81,590.00,34.20,0000 0000 0000 0000 000000
2018-07-20 10:49:42,0.00,1.08,0.00,25.22,29.20,32.21,13.83,46.81,1012.25,2018.99,2954.99,2797.99,3191.01,600.23,589.18,34.25,0000 0000 0000 0000 000000
2018-07-20 10:54:43,0.00,1.08,0.00,25.22,29.20,32.18,13.78,46.54,1012.26,2018.99,2954.99,2797.99,3191.01,600.00,588.94,34.30,0000 0000 0000 0000 000000
2018-07-20 10:59:44,0.00,1.08,0.00,25.21,29.20,32.16,13.77,46.22,1012.55,2018.99,2954.99,2797.99,3191.01,599.61,588.80,34.35,0000 0000 0000 0000 000000
2018-07-20 11:04:45,0.00,1.08,0.00,25.20,29.19,32.17,13.81,46.09,1012.70,2018.99,2954.99,2797.99,3191.03,600.09,589.46,34.40,0000 0000 0000 0000 000000
2018-07-20 11:09:47,0.00,1.08,0.00,25.20,29.17,32.14,13.80,46.16,1012.67,2018.99,2954.99,2797.99,3191.02,599.86,589.21,34.45,0000 0000 0000 0000 000000
2018-07-20 11:14:48,0.00,1.08,0.00,25.20,29.17,32.14,13.78,46.07,1012.69,2018.99,2954.99,2797.99,3191.01,599.98,589.38,34.50,0000 0000 0000 0000 000000
2018-07-20 11:19:49,0.00,1.08,0.00,25.20,29.17,32.14,13.83,46.06,1012.71,2018.99,2954.99,2797.99,3191.01,600.24,589.75,34.55,0000 0000 0000 0000 000000
2018-07-20 11:24:51,0.00,1.08,0.00,25.19,29.15,32.15,13.76,46.04,1012.71,2018.99,2954.97,2797.99,3191.01,599.78,589.17,34.60,0000 0000 0000 0000 000000
2018-07-20 11:29:52,0.00,1.08,0.00,25.17,29.15,32.13,13.72,45.94,1012.68,2018.99,2954.97,2797.99,3191.02,599.67,589.05,34.65,0000 0000 0000 0000 000000
2018-07-20 11:34:53,0.00,1.08,0.00,25.15,29.15,32.14,13.73,45.98,1012.54,2018.99,2954.99,2797.99,3191.02,599.90,589.32,34.70,0000 0000 0000 0000 000000
2018-07-20 11:39:54,0.00,1.08,0.00,25.15,29.14,32.11,13.82,45.98,1012.34,2018.99,2954.99,2798.00,3191.01,600.19,589.33,34.75,0000 0000 0000 0000 000000
2018-07-20 11:44:55,0.00,1.08,0.00,25.15,29.12,32.11,13.78,45.96,1012.29,2018.99,2954.99,2798.00,3191.02,599.60,588.78,34.80,0000 0000 0000 0000 000000
2018-07-20 11:49:57,0.00,1.08,0.00,25.13,29.12,32.12,13.82,46.00,1012.26,2018.99,2954.99,2798.00,3191.01,600.01,589.26,34.85,0000 0000 0000 0000 000000
2018-07-20 11:54:58,0.00,1.08,0.00,25.12,29.12,32.12,13.89,45.99,1012.24,2018.99,2954.99,2798.00,3191.04,600.26,589.38,34.90,0000 0000 0000 0000 000000
2018-07-20 11:59:59,0.00,1.08,0.00,25.12,29.10,32.11,13.78,45.98,1012.22,2019.00,2954.98,2798.00,3191.04,599.98,589.21,34.95,0000 0000 0000 0000 000000
2018-07-20 12:05:00,0.00,1.08,0.00,25.12,29.10,32.12,13.84,45.96,1012.23,2019.03,2954.98,2798.02,3191.05,600.07,589.40,35.00,0000 0000 0000 0000 000000
2018-07-20 12:10:01,-0.00,1.08,0.00,25.10,29.10,32.09,13.75,45.91,1012.23,2019.02,2954.99,2798.02,3191.05,599.84,589.13,35.05,0000 0000 0000 0000 000000
2018-07-20 12:15:02,0.00,1.08,0.00,25.10,29.09,32.08,13.74,45.87,1012.22,2019.01,2954.97,2798.01,3191.04,600.03,589.30,35.11,0000 0000 0000 0000 000000
2018-07-20 12:20:03,-0.00,1.08,0.00,25.10,29.07,32.07,13.89,45.96,1012.22,2019.03,2954.95,2798.02,3191.05,600.19,589.55,35.16,0000 0000 0000 0000 000000
2018-07-20 12:25:04,0.00,1.08,0.00,25.08,29.07,32.06,13.84,46.58,1012.22,2019.08,2954.96,2798.03,3191.06,600.89,590.19,35.21,0000 0000 0000 0000 000000
2018-07-20 12:30:05,-0.00,1.08,0.00,25.07,29.06,32.05,13.81,46.91,1012.24,2019.04,2954.79,2798.02,3191.04,599.96,589.23,35.26,0000 0000 0000 0000 000000
2018-07-20 12:35:07,0.01,1.08,0.00,25.05,29.05,32.04,13.85,46.96,1012.23,2019.04,2954.53,2798.01,3191.02,600.13,589.55,35.31,0000 0000 0000 0000 000000
2018-07-20 12:40:08,0.00,1.08,0.00,25.05,29.05,32.04,13.81,46.96,1012.23,2019.09,2954.78,2798.02,3191.04,599.76,589.18,35.36,0000 0000 0000 0000 000000
2018-07-20 12:45:09,0.00,1.08,0.00,25.05,29.03,32.01,13.69,46.95,1012.22,2019.14,2954.70,2798.04,3191.07,600.02,589.44,35.41,0000 0000 0000 0000 000000
2018-07-20 12:50:10,-0.00,1.08,0.00,25.05,29.02,32.02,13.77,47.01,1012.23,2019.11,2954.64,2798.04,3191.04,599.69,589.04,35.46,0000 0000 0000 0000 000000
2018-07-20 12:55:12,-0.01,1.08,0.00,25.05,29.02,32.00,13.82,47.14,1012.24,2019.15,2954.77,2798.10,3191.08,600.06,589.47,35.51,0000 0000 0000 0000 000000